Starlink 1910

decayed
NORAD ID: 46748 Int'l Des: 2020-074 Owner: SPXS Country: US Constellation: starlink
LEOCIRCULAR

关于 Starlink 1910

正在加载描述...

高度历史

Altitude vs Time

uPlot chart will show altitude changes over time

两行轨道根数

1 46748U 20074K 25034.22160043 .10950401 12518-4 15314-2 0 9991
2 46748 53.0009 269.1038 0021670 20.6189 80.7891 16.33376938237126
Epoch: Feb 3, 2025 • Age: 6551 hours

当前状态

Position data unavailable
发射日期 Oct 24, 2020
运行时间 5 years
衰减日期 Feb 3, 2025
类型 internet

技术详情

分类 Payload
质量 260.00 kg
干质量 248.00 kg
总质量 260.00 kg
长度 0.20 m
直径 2.80 m
跨度 9.00 m
形状 Box + pan
制造商 SPXS
平台类型 Starlink
阶段状态 Unknown Transfer Status
所有者/国家 SPXS/US

大型星座

Loading constellations...